Hourly Data Report for October 13, 2016

All times are specified in Local Standard Time (LST). Add 1 hour to adjust for Daylight Saving Time where and when it is observed.

KITCHENER/WATERLOO
ONTARIO

43°27'39.000" N
80°22'43.000" W
321.60 m
6144239
71368
YKF

Download Data

Hourly Data (October 2016)
Hourly Data Report for October 13, 2016
Temp Definition
°C
Dew Point Temp Definition
°C
Rel Hum Definition
%
Wind Dir Definition
10's deg

Wind Spd Definition
km/h
Visibility Definition
km
Stn Press Definition
kPa
Hmdx Definition


Wind Chill Definition


Weather Definition


TIME
00:00 Legend Double Dagger 19.0 12.8 67 22 50 16.1 97.33     Rain
01:00 Legend Double Dagger 15.9 14.5 91 21 28 16.1 97.28     Rain
02:00 Legend Double Dagger 13.3 11.7 90 29 34 16.1 97.38     LegendNANA
03:00 Legend Double Dagger 11.7 10.3 91 30 30 16.1 97.46     LegendNANA
04:00 Legend Double Dagger 10.8 9.6 92 30 24 11.3 97.54     Rain
05:00 Legend Double Dagger 10.3 8.9 91 29 22 16.1 97.66     LegendNANA
06:00 Legend Double Dagger 10.4 8.5 88 28 22 16.1 97.77     LegendNANA
07:00 Legend Double Dagger 9.9 7.7 86 30 28 16.1 97.85     LegendNANA
08:00 Legend Double Dagger 9.7 6.8 82 29 34 16.1 97.97     LegendNANA
09:00 Legend Double Dagger 9.3 6.8 84 30 22 16.1 98.07     LegendNANA
10:00 Legend Double Dagger 10.3 4.1 65 31 32 16.1 98.16     LegendNANA
11:00 Legend Double Dagger 10.5 4.3 65 33 32 16.1 98.26     LegendNANA
12:00 Legend Double Dagger 10.5 3.6 62 31 30 16.1 98.31     LegendNANA
13:00 Legend Double Dagger 10.9 3.0 58 32 26 16.1 98.36     LegendNANA
14:00 Legend Double Dagger 10.9 3.6 60 33 22 16.1 98.40     LegendNANA
15:00 Legend Double Dagger 12.7 3.7 54 30 17 16.1 98.44     LegendNANA
16:00 Legend Double Dagger 11.4 2.8 55 30 17 16.1 98.52     LegendNANA
17:00 Legend Double Dagger 9.8 0.9 54 31 18 16.1 98.56     LegendNANA
18:00 Legend Double Dagger 7.2 1.1 65 31 11 16.1 98.61     LegendNANA
19:00 Legend Double Dagger 5.1 1.4 77 32 9 16.1 98.67     LegendNANA
20:00 Legend Double Dagger 4.2 1.0 79 32 9 16.1 98.73     LegendNANA
21:00 Legend Double Dagger 2.7 1.5 92   0 16.1 98.78     LegendNANA
22:00 Legend Double Dagger 1.0 0.3 95   0 16.1 98.80     LegendNANA
23:00 Legend Double Dagger 0.6 0.2 97   0 16.1 98.83     LegendNANA

Notes on Data Quality.

Legend

  • E = Estimated
  • M = Missing
  • NA = Not Available
  • ‡ = Partner data that is not subject to review by the National Climate Archives
Date modified: